Regional Weather Roundup
Issued by NWS Jackson, KY

Home | Current Version | Previous Version | Text Only | Print | Product List | Glossary Off
Versions: 1 2 3 4 5 6 7 8 9 10 11 12 13 14 15 16 17 18 19 20 21 22 23 24 25 26 27 28 29 30 31 32 33 34 35 36 37 38 39 40 41 42 43 44 45 46 47 48

000
ASUS43 KJKL 281710
RWRJKL

EAST KENTUCKY HOURLY WEATHER ROUNDUP
NATIONAL WEATHER SERVICE JACKSON KY
1200 PM EST SAT FEB 28 2015

NOTE: "FAIR" INDICATES FEW OR NO CLOUDS BELOW 12,000 FEET WITH
NO SIGNIFICANT WEATHER AND/OR OBSTRUCTIONS TO VISIBILITY.

* THESE REPORTS ARE NOT UNDER NWS QUALITY CONTROL AND MAY NOT
  REPORT WEATHER SUCH AS PRECIPITATION AND FOG.

KYZ079-080-083-085-087-088-110-112-115-119-120-281800
...EASTERN KENTUCKY...

CITY           SKY/WX    TMP DP  RH WIND       PRES   REMARKS
JACKSON        MOSUNNY   31  11  43 VRB3      30.61F
LONDON         PTSUNNY   31  12  45 E6        30.61F WCI  25
SOMERSET*      PTSUNNY   32  14  47 E3        30.63F
MONTICELLO*    SUNNY     36  16  44 E3        30.64F
MIDDLESBORO*   CLOUDY    35  19  52 CALM      30.61F
BLACK MTN*       N/A     30  23  74 S3          N/A
PIKEVILLE APT* MOSUNNY   30  12  47 CALM      30.61F
BIG SANDY*     PTSUNNY   32  13  46 N3        30.64F
MOREHEAD APT*  MOSUNNY   30   9  40 NE7G13    30.67F WCI  23
$$

KYZ035-036-041-042-044-050-067-078-099-281800
...CENTRAL KENTUCKY...

CITY           SKY/WX    TMP DP  RH WIND       PRES   REMARKS
MT STERLING*   CLOUDY    28  12  50 E8        30.67S WCI  20
FLEMING/MASON* CLOUDY    25   9  50 NE7       30.69F WCI  17
DANVILLE*      PTSUNNY   28  14  54 E6        30.64F WCI  22
RICHMOND*      SUNNY     28  12  50 E3        30.63F
LEXINGTON      PTSUNNY   28  12  51 NE8       30.66S WCI  20
FRANKFORT        N/A     25  10  53 NE7       30.66F WCI  17
$$

KYZ091>093-OHZ055-061-077-WVZ005-015-034-035-042-281800
...SOUTHERN OHIO/WEST VIRGINIA...

CITY           SKY/WX    TMP DP  RH WIND       PRES   REMARKS
COVINGTON      CLOUDY    22   6  50 E7        30.69F WCI  13
COLUMBUS       MOSUNNY   18   1  47 SE6       30.74F WCI  10
DAYTON         CLOUDY    19   2  47 SE8       30.71F WCI   9
WILMINGTON     CLOUDY    16   2  54 E6        30.69F WCI   7
HUNTINGTON     MOSUNNY   27   8  44 VRB3      30.68F
CHARLESTON     MOSUNNY   30  10  43 VRB5      30.67F WCI  25
PINEVILLE*     PTSUNNY   35  17  47 MISG      30.64F
BECKLEY        PTSUNNY   25   9  50 SE8       30.58R WCI  16
BLUEFIELD      MOSUNNY   31  11  43 SE10      30.56S WCI  22
$$

VAZ002-007-008-TNZ017-027-036-066-071-281800
...SOUTHWEST VIRGINIA/EAST TENNESSEE...

CITY           SKY/WX    TMP DP  RH WIND       PRES   REMARKS
WISE*          CLOUDY    37  18  44 S3        30.54F
JONESVILLE*    CLOUDY    36  16  44 CALM      30.62F
ABINGDON*      MOSUNNY   35  17  49 E12       30.59R WCI  26
BRISTOL        PTSUNNY   35  18  49 CALM      30.60F
KNOXVILLE      PTSUNNY   33  19  56 E7        30.60  WCI  27
OAK RIDGE      MOSUNNY   39  19  44 VRB3      30.61F
CROSSVILLE     SUNNY     41  26  55 SE10      30.53F
NASHVILLE      CLOUDY    34  15  46 NE5       30.59F WCI  30
$$

...KEY TO REMARKS...
VSB - VISIBILITY IN MILES
WCI - WIND CHILL INDEX
HX  - HEAT INDEX

$$



USA.gov is the U.S. government's official web portal to all federal, state and local government web resources and services.